E 117 W B (WAAS/PRN 131)

Last updated on Mon Apr 28 2025 00:03:18 GMT+0000 (Coordinated Universal Time)

1 41589U 16038B 25117.07810422 -.00000009 00000+0 00000+0 0 9993 2 41589 0.0134 96.1357 0000215 239.5806 150.7252 1.00272302 32496
UTC large
Height (km)
Speed (km/s)
/
Latitude / Longitude
Inclination (degrees)
Orbital Period (minutes)
Azimuth
Elevation
Range (km)
Doppler Factor

Next 0 passes for location: London (51.5072 / 0.1276)

Sorry there are no passes over London.
E 117 W B (WAAS/PRN 131)